Location: Ritzville
(47.1276°N, 118.3800°W)
Time: 12:31:40
(UTC+00:00)

Tiangong - Visible Passes

Search period start: 12 August 2022 00:00
Search period end: 22 August 2022 00:00
Orbit: 379 x 386 km, 41.5° (Epoch: 12 August)

Date Brightness Start Highest point End Pass type
(mag) Time Alt. Az. Time Alt. Az. Time Alt. Az.
16 Aug 0.3 04:54:34 10° SW 04:54:56 12° SSW 04:54:56 12° SSW visible
17 Aug -0.2 03:54:52 10° SSW 03:56:47 15° SSE 03:57:51 13° SE visible
18 Aug -0.9 04:30:07 10° SW 04:32:41 24° S 04:32:41 24° S visible
19 Aug -0.5 03:30:06 10° SSW 03:32:29 20° SSE 03:34:52 10° ESE visible
19 Aug -0.2 05:06:01 10° WSW 05:07:20 19° SW 05:07:20 19° SW visible
20 Aug -1.0 04:05:43 10° SW 04:08:27 28° S 04:09:42 21° SE visible
21 Aug -0.8 04:41:44 10° WSW 04:44:07 26° SSW 04:44:07 26° SSW visible
